Regional Weather Roundup
Issued by NWS

Home | Current Version | Previous Version | Graphics & Text | Print | Product List | Glossary On
Versions: 1 2 3 4 5 6 7 8 9 10 11 12 13 14 15 16 17 18 19 20 21 22 23 24 25 26 27 28 29 30 31 32 33 34 35 36 37 38 39 40 41 42 43 44 45 46 47 48 49 50
000
ASUS43 KBIS 210359
RWRND

NORTH DAKOTA REGIONAL WEATHER ROUNDUP
NATIONAL WEATHER SERVICE BISMARCK ND
1100 PM CDT MON OCT 20 2014

NOTE: "FAIR" INDICATES FEW OR NO CLOUDS BELOW 12,000 FEET WITH NO
SIGNIFICANT WEATHER AND/OR OBSTRUCTIONS TO VISIBILITY.


NDZ001>003-009>011-017-210500-
NORTHWEST NORTH DAKOTA

CITY           SKY/WX    TMP DP  RH WIND       PRES   REMARKS
WILLISTON      CLEAR     60  42  51 S6        29.81F
MINOT          CLEAR     48  35  60 E8        29.88F
MINOT AFB      CLEAR     48  37  66 SE10      29.87F
$$

NDZ018>021-031>035-040>046-210500-
SOUTHWEST NORTH DAKOTA

CITY           SKY/WX    TMP DP  RH WIND       PRES   REMARKS
BISMARCK       CLEAR     54  34  46 SE9       29.94F
DICKINSON      CLEAR     52  39  61 SE13      29.85F
GARRISON         N/A     50  38  63 SE7       29.90S
HETTINGER ARPT CLEAR     51  39  63 E9        29.89F
$$

NDZ004>008-012>016-024-026-027-054-210500-
NORTHEAST NORTH DAKOTA

CITY           SKY/WX    TMP DP  RH WIND       PRES   REMARKS
GRAND FORKS    CLEAR     45  38  76 SE7       30.04R
DEVILS LAKE    CLEAR     48  39  71 SE10      29.98S
$$

NDZ022-023-025-028>030-036>039-047>053-210500-
SOUTHEAST NORTH DAKOTA

CITY           SKY/WX    TMP DP  RH WIND       PRES   REMARKS
FARGO          CLEAR     47  37  68 E8        30.04R
$$



USA.gov is the U.S. government's official web portal to all federal, state and local government web resources and services.